Date,TemperatureHighF,TemperatureAvgF,TemperatureLowF,DewpointHighF,DewpointAvgF,DewpointLowF,HumidityHigh,HumidityAvg,HumidityLow,PressureMaxIn,PressureMinIn,WindSpeedMaxMPH,WindSpeedAvgMPH,GustSpeedMaxMPH,PrecipitationSumIn
2013-12-1,26.9,24.2,22.9,22.6,21.5,20.3,98,89,83,30.25,29.98,6,0,6,0.00
2013-12-2,32.1,28.6,23.8,30.9,26.9,21.8,100,93,91,29.99,29.67,8,0,8,0.00
2013-12-3,33.0,31.3,28.6,31.7,29.8,26.6,100,94,92,29.92,29.67,0,0,0,0.00
2013-12-4,28.8,23.0,14.8,27.0,20.9,11.7,93,91,88,29.91,29.55,0,0,0,0.00
2013-12-5,14.6,3.9,-6.2,11.7,-0.5,-10.5,92,81,76,30.41,29.67,14,2,14,0.00
2013-12-6,0.8,-7.2,-13.8,-5.1,-12.0,-18.9,92,79,74,30.75,30.40,9,0,9,0.00
2013-12-7,-2.0,-11.9,-21.5,-9.1,-17.3,-26.8,89,76,69,30.80,30.69,16,1,16,0.00
2013-12-8,8.6,-3.8,-18.8,4.1,-8.2,-24.1,96,81,76,30.69,30.13,5,0,5,0.00
2013-12-9,-0.3,-4.1,-8.5,-4.0,-9.0,-13.5,92,79,71,30.15,29.94,13,1,13,0.00
2013-12-10,4.2,-2.5,-9.7,-0.7,-7.1,-14.2,92,80,73,30.43,29.92,12,1,12,0.00
2013-12-11,-0.8,-7.2,-14.0,-5.8,-13.0,-19.0,81,75,66,30.65,30.37,11,1,11,0.00
2013-12-12,13.6,5.8,-3.9,8.7,1.0,-8.2,92,80,75,30.38,30.26,6,0,6,0.00
2013-12-13,10.7,4.0,1.0,7.4,-2.9,-7.3,92,73,63,30.49,30.29,6,0,8,0.00
2013-12-14,8.1,2.2,-4.9,3.4,-2.8,-9.7,82,79,76,30.48,30.19,11,1,11,0.00
2013-12-15,-2.4,-6.7,-13.1,-8.5,-12.8,-18.0,80,74,64,30.33,30.23,11,0,11,0.00
2013-12-16,28.5,9.0,-2.5,26.6,4.6,-9.3,93,82,71,30.23,29.88,15,1,15,0.00
2013-12-17,30.3,17.3,-0.6,28.3,12.1,-4.7,94,80,68,30.17,29.87,18,5,26,0.00
2013-12-18,28.6,17.0,2.6,19.4,11.7,-0.9,90,79,67,30.14,29.67,11,1,11,0.01
2013-12-19,20.2,10.0,3.1,15.6,4.3,-1.7,89,77,68,30.28,29.93,16,1,16,0.00
2013-12-20,17.0,5.2,-4.5,10.9,1.2,-8.8,97,83,75,30.23,29.97,3,0,3,0.00
2013-12-21,15.0,10.9,5.3,10.0,7.1,2.0,89,84,79,30.18,29.95,7,0,7,0.00
2013-12-22,12.7,7.5,0.1,8.9,3.5,-4.5,92,83,79,30.41,30.11,11,2,11,0.00
2013-12-23,-0.1,-7.2,-19.8,-4.5,-12.8,-25.4,81,76,68,30.67,30.40,10,1,10,0.00
2013-12-24,9.3,-4.7,-23.3,6.0,-10.2,-28.9,86,77,57,30.63,30.18,11,0,11,0.00
2013-12-25,21.7,13.4,7.9,18.0,9.5,3.3,89,84,73,30.21,30.11,14,2,14,0.00
2013-12-26,20.6,15.8,9.0,16.5,11.9,5.4,87,84,78,30.23,30.15,4,0,4,0.00
2013-12-27,39.2,30.2,19.8,32.6,26.5,16.3,92,86,75,30.20,29.85,18,2,18,0.10
2013-12-28,32.8,26.8,5.8,31.2,24.2,-0.4,95,90,76,30.26,29.76,18,2,20,0.01
2013-12-29,5.6,-7.7,-17.3,-0.3,-15.5,-22.8,78,68,50,30.50,30.26,11,2,16,0.00
2013-12-30,0.8,-9.7,-20.1,-4.9,-14.7,-25.8,82,78,73,30.41,30.33,2,0,2,0.00
2013-12-31,-6.5,-11.8,-18.0,-12.1,-17.5,-23.3,89,75,66,30.61,30.32,6,0,8,0.00